Weather in Vasil'evskoe

Russia / Vologda Oblast     60°55′45″N   46°27′51″E
temp.,
°C
wind,
m/s
gust,
m/s
humid.,
%
clouds,
%
prec.,
mm/h
press.,
hPa
HPBL,
m
14 june, mon
mon1400:00+14s27975 0.0 1009150
03:00+14s269877 0.0 1009127
06:00+17ssw379087 0.0 1009263
09:00+21sw3565100 0.0 1009822
12:00+24wsw464969 0.0 10091555
15:00+21wsw266722 0.4 1009339
18:00+23nw475436 0.0 1009803
21:00+16wnw269267 0.3 1011164
15 june, tue
tue1500:00+13nw2897100 0.0 1013198
03:00+11nnw119796 0.0 101410
06:00+15n11848 0.0 1014255
09:00+21se11486 0.0 1014978
12:00+23ssw23365 0.0 10121783
15:00+25s353427 0.0 10102140
18:00+24sw25446 0.0 1008725
21:00+18s2269100 0.0 100726
16 june, wed
wed1600:00+18s3973100 0.0 1007249
03:00+15ssw259099 0.0 1007119
06:00+18ssw2678100 0.0 1006279
09:00+18wsw268275 0.3 1006313
12:00+20nw564717 0.1 10071125
15:00+13nw1489100 0.8 1009226
18:00+16wnw496877 0.3 10081052
21:00+12nw310805 0.4 1011376
17 june, thu
thu1700:00+10wnw310830 0.0 1012222
03:00+7nnw24930 0.0 101469
06:00+12nnw23635 0.0 1016363
09:00+16nnw224787 0.0 10161157
12:00+18nw364445 0.3 10171926
15:00+18nnw4746100 0.4 10172228
18:00+17wnw374681 0.1 10191430
21:00+13wsw11647 0.1 102010
18 june, fri
fri1800:00+9nw23735 0.0 102250
03:00+8nw22765 0.0 102425
06:00+14w24556 0.0 1024267
09:00+19wsw4536100 0.0 10231492
12:00+22wsw5731100 0.0 10212010
15:00+23wsw5833100 0.0 10202077
18:00+22sw4947100 0.0 1018792
21:00+17sw367184 0.0 1018105